Le nostre stazioni meteo in Italia

Pubblicità
Il mio iltempo24.it
Forli, Italia (16147): Temperatura & dewpoint: 30.05.2020 21:00:00 - 05.06.2020 21:00:00 (CEST)Forli, Italia (16147): velocità del vento: 30.05.2020 21:00:00 - 05.06.2020 21:00:00 (CEST)Forli, Italia (16147): direzione del vento: 30.05.2020 21:00:00 - 05.06.2020 21:00:00 (CEST)Forli, Italia (16147): reduced air pressure: 30.05.2020 21:00:00 - 05.06.2020 21:00:00 (CEST)Forli, Italia (16147): visibility: 30.05.2020 21:00:00 - 05.06.2020 21:00:00 (CEST)Forli, Italia (16147): precipitazioni: 30.05.2020 21:00:00 - 05.06.2020 21:00:00 (CEST)
Data & Tempo tt [°C] td [°C] ff [km/h] ff [kn] dd ppp [hPa] vv [km] rr [mm]
05.06.2020 21:00:00 - - - - - - - -
05.06.2020 20:00:00 23,2 11,9 9 5 E 998,9 - 0,0
05.06.2020 19:00:00 23,0 12,6 10 5 E 998,1 - 0,0
05.06.2020 18:00:00 23,3 13,2 15 8 NE 997,2 10 0,0
05.06.2020 17:00:00 24,1 13,0 16 9 O 997,2 10 0,0
05.06.2020 16:00:00 25,7 7,8 11 6 SO 996,9 10 0,0
05.06.2020 15:00:00 25,1 9,0 15 8 SSO 996,3 10 0,0
05.06.2020 14:00:00 23,7 9,3 24 13 O 996,2 10 0,0
05.06.2020 13:00:00 22,7 13,7 18 10 NNO 996,1 10 0,0
05.06.2020 12:00:00 23,7 10,7 15 8 SO 995,4 10 0,0
05.06.2020 11:00:00 22,7 12,0 4 2 - 995,1 10 0,0
05.06.2020 10:00:00 21,0 13,4 3 1 NO 994,4 10 0,0
05.06.2020 09:00:00 18,4 13,7 5 3 NNO 995,1 - 0,0
05.06.2020 08:00:00 18,5 12,5 2 1 OSO 994,5 - 0,0
05.06.2020 07:00:00 19,2 11,2 18 10 OSO 993,6 - 0,0
05.06.2020 06:00:00 18,0 12,4 16 9 S 994,0 - 0,0
05.06.2020 05:00:00 16,1 13,8 1 1 ESE 993,4 - 0,0
05.06.2020 04:00:00 16,5 14,0 4 2 ESE 993,4 - 0,0
05.06.2020 03:00:00 16,5 14,3 4 2 NE 993,4 - 0,2
05.06.2020 02:00:00 16,3 14,3 9 5 SSE 993,5 - 1,8
05.06.2020 01:00:00 17,1 15,8 11 6 SE 994,0 - 1,6
05.06.2020 00:00:00 17,2 15,4 10 5 N 994,4 - 1,8
04.06.2020 23:00:00 21,2 13,4 11 6 SSE 993,8 - 0,0
04.06.2020 22:00:00 21,8 13,2 11 6 SSE 994,2 - 0,0
04.06.2020 21:00:00 22,2 12,4 11 6 SSE 994,7 - 0,0
04.06.2020 20:00:00 23,1 11,2 18 10 SSE 995,2 - 0,0
04.06.2020 19:00:00 21,0 13,2 9 5 E 996,4 - 0,0
04.06.2020 18:00:00 21,3 14,2 9 5 ENE 997,3 10 0,0
04.06.2020 17:00:00 23,0 12,9 2 1 - 997,9 10 0,0
04.06.2020 16:00:00 22,2 12,7 8 4 ESE 998,6 10 0,0
04.06.2020 15:00:00 22,2 13,0 9 5 SSE 999,0 10 0,0
04.06.2020 14:00:00 20,1 13,8 5 3 - 999,8 10 0,0
04.06.2020 13:00:00 19,2 14,7 11 6 E 1000,4 10 0,0
04.06.2020 12:00:00 18,3 14,8 9 5 E 1001,0 10 0,0
04.06.2020 11:00:00 18,1 13,6 4 2 - 1001,4 8 1,0
04.06.2020 10:00:00 18,0 12,2 11 6 S 1001,5 8 0,6
04.06.2020 09:00:00 17,9 11,5 5 3 S 1001,7 - 0,6
04.06.2020 08:00:00 20,7 9,0 1 0 N 1001,5 - 0,0
04.06.2020 07:00:00 17,7 9,3 0 0 ESE 1001,1 - 0,0
04.06.2020 06:00:00 16,5 9,2 3 2 S 1001,5 - 0,0
04.06.2020 05:00:00 17,6 9,5 2 1 S 1001,4 - 0,0
04.06.2020 04:00:00 18,4 9,5 0 0 OSO 1002,1 - 0,0
04.06.2020 03:00:00 20,4 8,4 5 3 SO 1002,5 - 0,0
04.06.2020 02:00:00 20,1 9,6 5 3 OSO 1003,0 - 0,0
04.06.2020 01:00:00 20,5 9,7 4 2 SO 1003,5 - 0,0
04.06.2020 00:00:00 21,1 9,0 10 5 OSO 1003,6 - 0,0
03.06.2020 23:00:00 21,4 8,3 9 5 SO 1003,8 - 0,0
03.06.2020 22:00:00 22,1 7,1 9 5 SO 1003,9 - 0,0
03.06.2020 21:00:00 22,9 7,4 16 9 SO 1003,3 - 0,0
03.06.2020 20:00:00 24,9 8,8 8 5 SSO 1002,9 - 0,0
03.06.2020 19:00:00 25,9 9,7 19 10 OSO 1002,8 - 0,0
03.06.2020 18:00:00 25,7 10,3 24 13 OSO 1002,6 10 0,0
03.06.2020 17:00:00 25,5 10,5 15 8 SO 1003,4 10 0,0
03.06.2020 16:00:00 27,4 10,6 18 10 SSO 1003,8 10 0,0
03.06.2020 15:00:00 26,9 10,1 21 11 SSO 1004,6 10 0,0
03.06.2020 14:00:00 26,4 10,5 22 12 SO 1005,2 10 0,0
03.06.2020 13:00:00 26,8 9,6 4 2 - 1005,6 10 0,0
03.06.2020 12:00:00 25,9 8,4 4 2 - 1005,9 10 0,0
03.06.2020 11:00:00 25,2 8,2 4 2 - 1006,4 10 0,0
03.06.2020 10:00:00 23,9 8,7 5 3 NO 1007,0 10 0,0
03.06.2020 09:00:00 22,8 10,2 4 2 O 1007,2 - 0,0
03.06.2020 08:00:00 20,7 10,5 0 0 NO 1007,3 - 0,0
03.06.2020 07:00:00 17,5 9,9 6 3 S 1007,1 - 0,0
03.06.2020 06:00:00 17,0 9,4 - - - 1007,1 - 0,0
03.06.2020 05:00:00 16,5 9,7 7 4 S 1007,2 - 0,0
03.06.2020 04:00:00 17,7 9,8 6 3 OSO 1007,7 - 0,0
03.06.2020 03:00:00 17,7 9,8 6 3 SO 1008,2 - 0,0
03.06.2020 02:00:00 18,3 9,6 6 3 OSO 1008,7 - 0,0
03.06.2020 01:00:00 19,9 9,5 2 1 SO 1008,7 - 0,0
03.06.2020 00:00:00 20,8 9,1 1 1 SE 1008,5 - 0,0
02.06.2020 23:00:00 21,4 9,0 6 3 OSO 1008,7 - 0,0
02.06.2020 22:00:00 23,3 8,9 5 3 SO 1008,3 - 0,0
02.06.2020 21:00:00 23,7 8,9 2 1 ESE 1007,9 - 0,0
02.06.2020 20:00:00 24,7 8,6 7 4 E 1007,7 - 0,0
02.06.2020 19:00:00 25,5 8,5 13 7 E 1007,4 - 0,0
02.06.2020 18:00:00 26,3 8,7 21 11 ENE 1007,5 10 0,0
02.06.2020 17:00:00 27,1 9,0 13 7 E 1008,0 10 0,0
02.06.2020 16:00:00 27,7 7,5 8 4 ESE 1008,7 10 0,0
02.06.2020 15:00:00 27,2 6,6 4 2 - 1009,4 10 0,0
02.06.2020 14:00:00 26,7 6,1 5 3 - 1010,2 10 0,0
02.06.2020 13:00:00 25,9 5,5 8 4 E 1010,9 10 0,0
02.06.2020 12:00:00 25,9 4,9 11 6 ESE 1011,3 10 0,0
02.06.2020 11:00:00 25,1 6,3 5 3 - 1011,8 10 0,0
02.06.2020 10:00:00 23,8 7,4 1 1 E 1012,3 10 0,0
02.06.2020 09:00:00 21,0 8,3 1 1 SE 1012,5 - 0,0
02.06.2020 08:00:00 18,2 7,6 4 2 SSE 1012,6 - 0,0
02.06.2020 07:00:00 15,9 7,4 0 0 SSO 1012,9 - 0,0
02.06.2020 06:00:00 14,4 7,2 10 5 S 1012,8 - 0,0
02.06.2020 05:00:00 14,9 7,4 - - - 1013,5 - 0,0
02.06.2020 04:00:00 15,2 7,5 5 3 SSO 1014,0 - 0,0
02.06.2020 03:00:00 14,9 7,9 11 6 S 1014,1 - 0,0
02.06.2020 02:00:00 15,4 7,9 8 5 S 1014,5 - 0,0
02.06.2020 01:00:00 15,5 8,2 5 3 SSO 1014,6 - 0,0
02.06.2020 00:00:00 16,2 8,7 4 2 SSO 1014,7 - 0,0
01.06.2020 23:00:00 17,8 8,6 3 2 SO 1014,5 - 0,0
01.06.2020 22:00:00 20,6 7,2 2 1 E 1014,2 - 0,0
01.06.2020 21:00:00 21,7 6,8 5 3 E 1013,7 - 0,0
01.06.2020 20:00:00 23,1 5,5 4 2 ESE 1013,7 - 0,0
01.06.2020 19:00:00 23,4 5,8 9 5 E 1014,0 - 0,0
01.06.2020 18:00:00 24,2 5,5 5 3 - 1014,0 10 0,0
01.06.2020 17:00:00 24,3 5,1 9 5 ENE 1014,4 10 0,0
01.06.2020 16:00:00 23,8 4,7 0 0 N 1014,7 10 0,0
01.06.2020 15:00:00 23,5 5,4 5 3 - 1014,8 10 0,0
01.06.2020 14:00:00 23,2 6,0 11 6 ESE 1015,1 10 0,0
01.06.2020 13:00:00 22,7 6,4 8 4 SSE 1015,3 10 0,0
01.06.2020 12:00:00 22,2 6,0 11 6 SE 1015,4 10 0,0
01.06.2020 11:00:00 21,4 5,7 8 4 E 1015,4 10 0,0
01.06.2020 10:00:00 20,5 4,9 7 4 E 1015,5 10 0,0
01.06.2020 09:00:00 19,8 7,5 3 2 ESE 1015,6 - 0,0
01.06.2020 08:00:00 16,7 9,6 4 2 S 1015,4 - 0,0
01.06.2020 07:00:00 14,4 9,6 2 1 S 1015,3 - 0,0
01.06.2020 06:00:00 13,5 9,5 1 1 SSO 1015,1 - 0,0
01.06.2020 05:00:00 13,8 9,6 3 2 SO 1014,8 - 0,0
01.06.2020 04:00:00 14,5 9,9 5 3 S 1014,6 - 0,0
01.06.2020 03:00:00 14,6 10,0 4 2 SO 1014,7 - 0,0
01.06.2020 02:00:00 14,7 10,1 4 2 SO 1014,7 - 0,0
01.06.2020 01:00:00 15,1 9,9 5 3 S 1014,5 - 0,0
01.06.2020 00:00:00 15,4 10,0 3 2 S 1014,1 - 0,0
31.05.2020 23:00:00 16,5 9,0 4 2 S 1013,9 - 0,0
31.05.2020 22:00:00 17,3 8,4 8 4 ESE 1013,3 - 0,0
31.05.2020 21:00:00 18,4 7,2 9 5 E 1012,5 - 0,0
31.05.2020 20:00:00 19,5 7,6 11 6 E 1012,2 - 0,0
31.05.2020 19:00:00 20,4 7,1 11 6 ESE 1011,7 - 0,0
31.05.2020 18:00:00 21,0 6,5 12 6 E 1011,8 - 0,0
31.05.2020 17:00:00 20,9 6,0 16 8 E 1012,2 - 0,0
31.05.2020 16:00:00 21,6 5,9 11 6 ESE 1012,4 - 0,0
31.05.2020 15:00:00 21,5 6,2 9 5 E 1012,6 - 0,0
31.05.2020 14:00:00 20,8 6,0 8 4 NE 1012,9 - 0,0
31.05.2020 13:00:00 20,9 6,8 7 4 E 1013,3 - 0,0
31.05.2020 12:00:00 19,7 8,4 6 3 ESE 1014,1 - 0,0
31.05.2020 11:00:00 19,1 9,6 5 3 E 1014,3 - 0,0
31.05.2020 10:00:00 17,7 10,1 0 0 NO 1014,6 - 0,0
31.05.2020 09:00:00 16,1 9,5 2 1 SSO 1014,5 - 0,0
31.05.2020 08:00:00 14,7 8,9 5 3 SO 1014,4 - 0,0
31.05.2020 07:00:00 13,6 9,4 2 1 SO 1014,1 - 0,0
31.05.2020 06:00:00 13,4 8,0 5 3 SO 1013,8 - 0,0
31.05.2020 05:00:00 13,6 8,0 5 3 S 1013,6 - 0,0
31.05.2020 04:00:00 13,2 8,5 4 2 SO 1013,8 - 0,0
31.05.2020 03:00:00 13,7 8,7 3 2 SO 1014,1 - 0,0
31.05.2020 02:00:00 13,6 8,9 5 3 S 1014,3 - 0,0
31.05.2020 01:00:00 13,5 9,0 3 2 SO 1014,4 - 0,0
31.05.2020 00:00:00 14,2 9,0 6 4 SSE 1014,2 - 0,0
30.05.2020 23:00:00 15,5 9,2 1 1 SSO 1014,1 - 0,0
30.05.2020 22:00:00 17,2 9,1 2 1 E 1013,7 - 0,0
30.05.2020 21:00:00 18,0 8,6 6 3 E 1013,1 - 0,0

tt = Temperatura
td = dewpoint
ff = velocità del vento
dd = direzione del vento
ppp = reduced air pressure
vv = visibility
rr = precipitazioni

Stazioni seguenti

WeatherPro
AMSI
MeteoEarth